| time (UTC) | temp F | wind direction | speed MPH | gust MPH | rain 1hr in | rain 24hr in | rain mn in | humidity % | barometer mb |
| 20260510162804 | 67 | 280 | 5.0 | 14.0 | 0.00 | 0.00 | 0.00 | 39 | 1019.9 |
| 20260510161803 | 66 | 325 | 2.0 | 5.0 | 0.00 | 0.00 | 0.00 | 38 | 1019.9 |
| 20260510161303 | 66 | 208 | 3.0 | 12.0 | 0.00 | 0.00 | 0.00 | 38 | 1019.9 |
| 20260510160804 | 66 | 325 | 3.0 | 12.0 | 0.00 | 0.00 | 0.00 | 37 | 1019.7 |
| 20260510160303 | 66 | 277 | 3.0 | 7.0 | 0.00 | 0.00 | 0.00 | 37 | 1019.7 |
| 20260510155803 | 66 | 280 | 3.0 | 12.0 | 0.00 | 0.00 | 0.00 | 37 | 1019.7 |
| 20260510155305 | 67 | 264 | 3.0 | 7.0 | 0.00 | 0.00 | 0.00 | 37 | 1019.7 |
| 20260510154804 | 67 | 190 | 3.0 | 7.0 | 0.00 | 0.00 | 0.00 | 38 | 1019.1 |
| 20260510154303 | 66 | 313 | 2.0 | 7.0 | 0.00 | 0.00 | 0.00 | 38 | 1019.1 |
| 20260510153804 | 66 | 347 | 2.0 | 15.0 | 0.00 | 0.00 | 0.00 | 39 | 1019.1 |
| 20260510153304 | 66 | 32 | 2.0 | 15.0 | 0.00 | 0.00 | 0.00 | 39 | 1019.1 |
| 20260510152803 | 66 | 190 | 2.0 | 5.0 | 0.00 | 0.00 | 0.00 | 41 | 1019.1 |
| 20260510152307 | 66 | 20 | 2.0 | 5.0 | 0.00 | 0.00 | 0.00 | 41 | 1019.1 |
| 20260510151804 | 65 | 303 | 2.0 | 3.0 | 0.00 | 0.00 | 0.00 | 43 | 1019.1 |
| 20260510151303 | 65 | 311 | 2.0 | 6.0 | 0.00 | 0.00 | 0.00 | 44 | 1019.1 |
| 20260510150804 | 65 | 145 | 1.0 | 5.0 | 0.00 | 0.00 | 0.00 | 44 | 1019.2 |
| 20260510145804 | 65 | 325 | 5.0 | 6.0 | 0.00 | 0.00 | 0.00 | 45 | 1019.2 |
| 20260510144303 | 64 | 196 | 3.0 | 9.0 | 0.00 | 0.00 | 0.00 | 47 | 1018.6 |
| 20260510143803 | 64 | 347 | 3.0 | 5.0 | 0.00 | 0.00 | 0.00 | 48 | 1018.6 |
| 20260510143303 | 64 | 344 | 3.0 | 6.0 | 0.00 | 0.00 | 0.00 | 50 | 1018.6 |
| 20260510142804 | 63 | 347 | 3.0 | 6.0 | 0.00 | 0.00 | 0.00 | 52 | 1018.6 |
| 20260510142306 | 63 | 55 | 2.0 | 9.0 | 0.00 | 0.00 | 0.00 | 52 | 1018.6 |
| 20260510141304 | 62 | 354 | 2.0 | 13.0 | 0.00 | 0.00 | 0.00 | 54 | 1019.0 |
| 20260510140803 | 62 | 347 | 1.0 | 8.0 | 0.00 | 0.00 | 0.00 | 55 | 1019.0 |
| 20260510135803 | 61 | 280 | 2.0 | 5.0 | 0.00 | 0.00 | 0.00 | 56 | 1019.0 |
| 20260510134804 | 61 | 347 | 5.0 | 8.0 | 0.00 | 0.00 | 0.00 | 56 | 1019.2 |
| 20260510133803 | 61 | 347 | 3.0 | 9.0 | 0.00 | 0.00 | 0.00 | 57 | 1019.2 |
| 20260510133303 | 61 | 330 | 1.0 | 3.0 | 0.00 | 0.00 | 0.00 | 59 | 1019.2 |
| 20260510132804 | 60 | 257 | 2.0 | 3.0 | 0.00 | 0.00 | 0.00 | 61 | 1018.7 |
| 20260510132306 | 60 | 347 | 2.0 | 7.0 | 0.00 | 0.00 | 0.00 | 63 | 1018.7 |
| 20260510131803 | 60 | 347 | 2.0 | 7.0 | 0.00 | 0.00 | 0.00 | 62 | 1018.7 |
| 20260510131304 | 59 | 303 | 3.0 | 7.0 | 0.00 | 0.00 | 0.00 | 64 | 1018.7 |
| 20260510130803 | 59 | 10 | 2.0 | 7.0 | 0.00 | 0.00 | 0.00 | 64 | 1018.7 |
| 20260510130304 | 59 | 321 | 1.0 | 8.0 | 0.00 | 0.00 | 0.00 | 65 | 1018.7 |
| 20260510125804 | 59 | 347 | 1.0 | 3.0 | 0.00 | 0.00 | 0.00 | 65 | 1018.7 |
| 20260510125307 | 59 | 330 | 1.0 | 3.0 | 0.00 | 0.00 | 0.00 | 67 | 1018.7 |
| 20260510124803 | 58 | 325 | 1.0 | 5.0 | 0.00 | 0.00 | 0.00 | 67 | 1018.7 |
| 20260510124305 | 58 | 317 | 1.0 | 5.0 | 0.00 | 0.00 | 0.00 | 69 | 1018.7 |
| 20260510123804 | 58 | 347 | 1.0 | 2.0 | 0.00 | 0.00 | 0.00 | 70 | 1018.7 |
| 20260510123304 | 58 | 5 | 0.0 | 5.0 | 0.00 | 0.00 | 0.00 | 70 | 1018.7 |
| 20260510122804 | 58 | 347 | 1.0 | 3.0 | 0.00 | 0.00 | 0.00 | 71 | 1018.5 |
| 20260510121807 | 58 | 303 | 1.0 | 2.0 | 0.00 | 0.00 | 0.00 | 72 | 1018.5 |
| 20260510121304 | 58 | 242 | 1.0 | 3.0 | 0.00 | 0.00 | 0.00 | 74 | 1018.5 |
| 20260510120805 | 58 | 10 | 0.0 | 3.0 | 0.00 | 0.00 | 0.00 | 75 | 1017.9 |
| 20260510120304 | 58 | 347 | 1.0 | 3.0 | 0.00 | 0.00 | 0.00 | 75 | 1017.9 |
| 20260510115815 | 58 | 10 | 1.0 | 5.0 | 0.00 | 0.00 | 0.00 | 77 | 1017.9 |
| 20260510115306 | 58 | 329 | 1.0 | 8.0 | 0.00 | 0.00 | 0.00 | 77 | 1017.9 |
| 20260510114805 | 58 | 325 | 1.0 | 8.0 | 0.00 | 0.00 | 0.00 | 79 | 1017.4 |
| 20260510113304 | 58 | 23 | 1.0 | 6.0 | 0.00 | 0.00 | 0.00 | 83 | 1017.4 |
| 20260510112306 | 57 | 319 | 1.0 | 2.0 | 0.00 | 0.00 | 0.00 | 86 | 1017.1 |
| 20260510111804 | 57 | 303 | 1.0 | 6.0 | 0.00 | 0.00 | 0.00 | 88 | 1017.1 |
| 20260510111304 | 57 | 335 | 1.0 | 8.0 | 0.00 | 0.00 | 0.00 | 89 | 1017.1 |
| 20260510110804 | 57 | 325 | 0.0 | 5.0 | 0.00 | 0.00 | 0.00 | 92 | 1016.6 |
| 20260510110303 | 57 | 356 | 0.0 | 0.0 | 0.00 | 0.00 | 0.00 | 92 | 1016.6 |
| 20260510105804 | 57 | 257 | 0.0 | 0.0 | 0.00 | 0.00 | 0.00 | 93 | 1016.6 |
| 20260510105306 | 57 | 248 | 0.0 | 0.0 | 0.00 | 0.00 | 0.00 | 93 | 1016.6 |
| 20260510104804 | 57 | 303 | 0.0 | 0.0 | 0.00 | 0.00 | 0.00 | 93 | 1016.6 |
| 20260510104303 | 57 | 313 | 0.0 | 0.0 | 0.00 | 0.00 | 0.00 | 93 | 1016.6 |
| 20260510103804 | 58 | 303 | 0.0 | 0.0 | 0.00 | 0.00 | 0.00 | 93 | 1016.6 |
| 20260510103304 | 58 | 251 | 0.0 | 0.0 | 0.00 | 0.00 | 0.00 | 93 | 1016.6 |
| 20260510102804 | 58 | 257 | 0.0 | 3.0 | 0.00 | 0.00 | 0.00 | 93 | 1016.6 |
| 20260510102306 | 58 | 325 | 1.0 | 3.0 | 0.00 | 0.00 | 0.00 | 93 | 1016.6 |
| 20260510101804 | 58 | 280 | 1.0 | 0.0 | 0.00 | 0.00 | 0.00 | 93 | 1016.6 |
| 20260510101304 | 58 | 199 | 1.0 | 3.0 | 0.00 | 0.00 | 0.00 | 93 | 1016.6 |
| 20260510100804 | 58 | 10 | 1.0 | 5.0 | 0.00 | 0.00 | 0.00 | 93 | 1016.8 |
| 20260510100308 | 58 | 4 | 1.0 | 5.0 | 0.00 | 0.00 | 0.00 | 92 | 1016.8 |
| 20260510095804 | 58 | 190 | 0.0 | 0.0 | 0.00 | 0.00 | 0.00 | 92 | 1016.8 |
| 20260510094804 | 59 | 325 | 1.0 | 6.0 | 0.00 | 0.00 | 0.00 | 92 | 1016.5 |
| 20260510094304 | 59 | 347 | 1.0 | 6.0 | 0.00 | 0.00 | 0.00 | 92 | 1016.5 |
| 20260510093804 | 59 | 145 | 0.0 | 0.0 | 0.00 | 0.00 | 0.00 | 92 | 1016.5 |
| 20260510093304 | 59 | 181 | 0.0 | 0.0 | 0.00 | 0.00 | 0.00 | 92 | 1016.5 |
| 20260510092811 | 59 | 325 | 0.0 | 0.0 | 0.00 | 0.00 | 0.00 | 92 | 1015.6 |
| 20260510092307 | 59 | 123 | 0.0 | 0.0 | 0.00 | 0.00 | 0.00 | 91 | 1015.6 |
| 20260510091804 | 59 | 145 | 0.0 | 0.0 | 0.00 | 0.00 | 0.00 | 91 | 1015.6 |
| 20260510091303 | 59 | 145 | 0.0 | 0.0 | 0.00 | 0.00 | 0.00 | 91 | 1015.6 |
| 20260510090804 | 59 | 145 | 0.0 | 0.0 | 0.00 | 0.00 | 0.00 | 91 | 1015.1 |
| 20260510090304 | 59 | 145 | 0.0 | 0.0 | 0.00 | 0.00 | 0.00 | 91 | 1015.1 |
| 20260510085804 | 59 | 190 | 0.0 | 0.0 | 0.00 | 0.00 | 0.00 | 91 | 1015.1 |
| 20260510085306 | 59 | 190 | 0.0 | 0.0 | 0.00 | 0.00 | 0.00 | 90 | 1015.1 |
| 20260510084805 | 59 | 190 | 0.0 | 0.0 | 0.00 | 0.00 | 0.00 | 90 | 1015.0 |
| 20260510084304 | 59 | 190 | 0.0 | 0.0 | 0.00 | 0.00 | 0.00 | 90 | 1015.0 |
| 20260510083804 | 59 | 190 | 0.0 | 0.0 | 0.00 | 0.00 | 0.00 | 90 | 1015.0 |
| 20260510083304 | 59 | 190 | 0.0 | 0.0 | 0.00 | 0.00 | 0.00 | 90 | 1015.0 |
| 20260510082803 | 60 | 190 | 0.0 | 2.0 | 0.00 | 0.00 | 0.00 | 89 | 1014.5 |
| 20260510081805 | 60 | 325 | 0.0 | 0.0 | 0.00 | 0.00 | 0.00 | 89 | 1014.5 |
| 20260510081304 | 60 | 347 | 0.0 | 0.0 | 0.00 | 0.00 | 0.00 | 89 | 1014.5 |
| 20260510080804 | 60 | 347 | 0.0 | 0.0 | 0.00 | 0.00 | 0.00 | 89 | 1014.1 |
| 20260510080304 | 60 | 347 | 0.0 | 0.0 | 0.00 | 0.00 | 0.00 | 89 | 1014.1 |
| 20260510075804 | 60 | 347 | 0.0 | 0.0 | 0.00 | 0.00 | 0.00 | 89 | 1014.1 |
| 20260510075306 | 60 | 347 | 0.0 | 0.0 | 0.00 | 0.00 | 0.00 | 88 | 1014.1 |
| 20260510074805 | 60 | 347 | 0.0 | 0.0 | 0.00 | 0.00 | 0.00 | 88 | 1014.1 |
| 20260510074304 | 60 | 347 | 0.0 | 0.0 | 0.00 | 0.00 | 0.00 | 88 | 1014.1 |
| 20260510073806 | 60 | 167 | 0.0 | 0.0 | 0.00 | 0.00 | 0.00 | 86 | 1014.1 |
| 20260510073304 | 61 | 303 | 0.0 | 0.0 | 0.00 | 0.00 | 0.00 | 86 | 1013.8 |
| 20260510072305 | 61 | 261 | 0.0 | 2.0 | 0.00 | 0.00 | 0.00 | 86 | 1013.8 |
| 20260510071804 | 61 | 190 | 0.0 | 0.0 | 0.00 | 0.00 | 0.00 | 86 | 1013.8 |
| 20260510071304 | 61 | 325 | 0.0 | 0.0 | 0.00 | 0.00 | 0.00 | 86 | 1013.8 |
| 20260510070304 | 61 | 167 | 0.0 | 0.0 | 0.00 | 0.00 | 0.00 | 86 | 1014.3 |
| 20260510065804 | 61 | 167 | 0.0 | 0.0 | 0.00 | 0.00 | 0.00 | 86 | 1014.3 |
| 20260510064803 | 61 | 347 | 1.0 | 0.0 | 0.00 | 0.00 | 0.00 | 87 | 1014.5 |
| 20260510064304 | 62 | 314 | 2.0 | 3.0 | 0.00 | 0.00 | 0.00 | 87 | 1014.5 |
| 20260510063803 | 62 | 303 | 2.0 | 7.0 | 0.00 | 0.00 | 0.00 | 88 | 1014.5 |
| 20260510063304 | 62 | 307 | 1.0 | 7.0 | 0.00 | 0.00 | 0.00 | 89 | 1014.5 |
| 20260510062306 | 62 | 303 | 1.0 | 3.0 | 0.00 | 0.00 | 0.00 | 89 | 1014.1 |
| 20260510061304 | 62 | 318 | 0.0 | 3.0 | 0.00 | 0.00 | 0.00 | 89 | 1014.1 |
| 20260510060803 | 62 | 33 | 0.0 | 2.0 | 0.00 | 0.00 | 0.00 | 91 | 1013.6 |
| 20260510060304 | 63 | 34 | 0.0 | 0.0 | 0.00 | 0.00 | 0.00 | 91 | 1013.6 |
| 20260510055804 | 63 | 347 | 0.0 | 2.0 | 0.00 | 0.00 | 0.00 | 88 | 1013.6 |
| 20260510055306 | 62 | 297 | 0.0 | 0.0 | 0.00 | 0.00 | 0.00 | 88 | 1013.6 |
| 20260510054304 | 62 | 181 | 1.0 | 2.0 | 0.00 | 0.00 | 0.00 | 87 | 1013.3 |
| 20260510053805 | 62 | 167 | 1.0 | 5.0 | 0.00 | 0.00 | 0.00 | 87 | 1013.3 |
| 20260510052804 | 62 | 190 | 2.0 | 5.0 | 0.00 | 0.00 | 0.00 | 86 | 1014.1 |
| 20260510035306 | 64 | 42 | 10.0 | 23.0 | 0.00 | 0.00 | 0.00 | 81 | 1013.7 |
| 20260510034803 | 64 | 190 | 13.0 | 25.0 | 0.00 | 0.00 | 0.00 | 78 | 1012.3 |
| 20260510034303 | 66 | 145 | 15.0 | 40.0 | 0.00 | 0.00 | 0.00 | 73 | 1012.3 |
| 20260510033304 | 70 | 350 | 2.0 | 54.0 | 0.00 | 0.03 | 0.00 | 58 | 1012.3 |
| 20260510032802 | 70 | 33 | 0.0 | 0.0 | 0.00 | 0.06 | 0.00 | 53 | 1011.3 |
| 20260510031803 | 70 | 145 | 0.0 | 0.0 | 0.00 | 0.10 | 0.00 | 53 | 1011.3 |
| 20260510031303 | 70 | 145 | 0.0 | 0.0 | 0.00 | 0.10 | 0.00 | 53 | 1011.3 |
| 20260510030803 | 70 | 145 | 0.0 | 0.0 | 0.00 | 0.10 | 0.00 | 52 | 1010.8 |
| 20260510030302 | 70 | 145 | 0.0 | 0.0 | 0.00 | 0.10 | 0.00 | 52 | 1010.8 |
| 20260510025802 | 71 | 145 | 0.0 | 0.0 | 0.00 | 0.13 | 0.00 | 51 | 1010.8 |
| 20260510024803 | 71 | 145 | 0.0 | 0.0 | 0.00 | 0.19 | 0.00 | 51 | 1010.6 |
| 20260510024303 | 71 | 145 | 0.0 | 0.0 | 0.00 | 0.19 | 0.00 | 50 | 1010.6 |
| 20260510023803 | 71 | 145 | 0.0 | 0.0 | 0.00 | 0.19 | 0.00 | 50 | 1010.6 |
| 20260510022306 | 71 | 145 | 0.0 | 0.0 | 0.00 | 0.19 | 0.00 | 49 | 1010.2 |
| 20260510021803 | 71 | 145 | 0.0 | 0.0 | 0.00 | 0.19 | 0.00 | 48 | 1010.2 |
| 20260510021302 | 71 | 145 | 0.0 | 0.0 | 0.00 | 0.19 | 0.00 | 47 | 1010.2 |
| 20260510020303 | 72 | 145 | 0.0 | 0.0 | 0.00 | 0.19 | 0.00 | 45 | 1010.1 |
| 20260510015803 | 72 | 145 | 0.0 | 0.0 | 0.00 | 0.19 | 0.00 | 45 | 1010.1 |
| 20260510015306 | 72 | 145 | 0.0 | 0.0 | 0.00 | 0.19 | 0.00 | 44 | 1010.1 |
| 20260510014803 | 73 | 145 | 0.0 | 0.0 | 0.00 | 0.19 | 0.00 | 44 | 1009.6 |
| 20260510014303 | 73 | 145 | 0.0 | 0.0 | 0.00 | 0.19 | 0.00 | 42 | 1009.6 |
| 20260510013303 | 74 | 145 | 0.0 | 0.0 | 0.00 | 0.19 | 0.00 | 41 | 1009.6 |
| 20260510012306 | 75 | 145 | 0.0 | 0.0 | 0.00 | 0.19 | 0.00 | 38 | 1009.6 |
| 20260510011803 | 75 | 145 | 0.0 | 0.0 | 0.00 | 0.19 | 0.00 | 37 | 1009.6 |
| 20260510011303 | 76 | 145 | 0.0 | 0.0 | 0.00 | 0.19 | 0.00 | 37 | 1009.6 |
| 20260510010802 | 76 | 145 | 0.0 | 0.0 | 0.00 | 0.19 | 0.00 | 36 | 1009.2 |
| 20260510005802 | 78 | 167 | 0.0 | 0.0 | 0.00 | 0.19 | 0.00 | 36 | 1009.2 |
| 20260510005306 | 78 | 167 | 0.0 | 0.0 | 0.00 | 0.19 | 0.00 | 36 | 1009.2 |
| 20260510004802 | 79 | 167 | 0.0 | 0.0 | 0.00 | 0.19 | 0.00 | 34 | 1009.2 |
| 20260510004303 | 79 | 127 | 0.0 | 0.0 | 0.00 | 0.19 | 0.00 | 34 | 1009.2 |
| 20260510003802 | 80 | 167 | 0.0 | 0.0 | 0.00 | 0.19 | 0.00 | 34 | 1009.2 |
| 20260510003304 | 80 | 167 | 0.0 | 0.0 | 0.00 | 0.19 | 0.00 | 33 | 1009.2 |
| 20260510002803 | 79 | 167 | 1.0 | 0.0 | 0.00 | 0.19 | 0.00 | 33 | 1008.9 |
| 20260510002306 | 79 | 163 | 1.0 | 0.0 | 0.00 | 0.19 | 0.00 | 33 | 1008.9 |
| 20260510001803 | 80 | 213 | 1.0 | 3.0 | 0.00 | 0.19 | 0.00 | 32 | 1008.9 |
| 20260510001303 | 80 | 167 | 3.0 | 10.0 | 0.00 | 0.19 | 0.00 | 32 | 1008.9 |
| 20260510000803 | 80 | 100 | 3.0 | 10.0 | 0.00 | 0.19 | 0.00 | 31 | 1009.2 |
| 20260510000304 | 80 | 181 | 3.0 | 6.0 | 0.00 | 0.19 | 0.00 | 31 | 1009.2 |
| 20260509235306 | 80 | 163 | 3.0 | 7.0 | 0.00 | 0.19 | 0.00 | 31 | 1009.2 |
| 20260509234803 | 81 | 123 | 2.0 | 8.0 | 0.00 | 0.19 | 0.00 | 31 | 1008.5 |
| 20260509234303 | 81 | 136 | 3.0 | 8.0 | 0.00 | 0.19 | 0.00 | 30 | 1008.5 |
| 20260509233803 | 81 | 303 | 5.0 | 9.0 | 0.00 | 0.19 | 0.00 | 30 | 1008.5 |
| 20260509233303 | 82 | 141 | 3.0 | 13.0 | 0.00 | 0.19 | 0.00 | 30 | 1008.5 |
| 20260509232306 | 83 | 272 | 5.0 | 7.0 | 0.00 | 0.19 | 0.00 | 29 | 1008.5 |
| 20260509231802 | 83 | 55 | 5.0 | 7.0 | 0.00 | 0.19 | 0.00 | 29 | 1008.5 |
| 20260509231302 | 85 | 287 | 5.0 | 7.0 | 0.00 | 0.19 | 0.00 | 29 | 1008.5 |
| 20260509230303 | 86 | 150 | 6.0 | 10.0 | 0.00 | 0.19 | 0.00 | 29 | 1008.3 |
| 20260509225803 | 86 | 145 | 6.0 | 9.0 | 0.00 | 0.19 | 0.00 | 29 | 1008.3 |
| 20260509225305 | 86 | 145 | 5.0 | 9.0 | 0.00 | 0.19 | 0.00 | 28 | 1008.3 |
| 20260509224803 | 87 | 347 | 3.0 | 7.0 | 0.00 | 0.19 | 0.00 | 30 | 1008.5 |
| 20260509224303 | 87 | 145 | 4.0 | 14.0 | 0.00 | 0.19 | 0.00 | 29 | 1008.5 |
| 20260509223803 | 87 | 167 | 3.0 | 12.0 | 0.00 | 0.19 | 0.00 | 30 | 1008.5 |
| 20260509223302 | 87 | 127 | 3.0 | 13.0 | 0.00 | 0.19 | 0.00 | 29 | 1008.5 |
| 20260509222306 | 86 | 0 | 5.0 | 14.0 | 0.00 | 0.19 | 0.00 | 29 | 1008.5 |
| 20260509221803 | 87 | 347 | 3.0 | 5.0 | 0.00 | 0.19 | 0.00 | 29 | 1008.5 |
| 20260509221303 | 87 | 335 | 3.0 | 10.0 | 0.00 | 0.19 | 0.00 | 29 | 1008.5 |
| 20260509220802 | 87 | 303 | 2.0 | 8.0 | 0.00 | 0.19 | 0.00 | 29 | 1008.4 |
| 20260509220303 | 87 | 309 | 2.0 | 8.0 | 0.00 | 0.19 | 0.00 | 29 | 1008.4 |
| 20260509214803 | 85 | 347 | 6.0 | 14.0 | 0.00 | 0.19 | 0.00 | 30 | 1008.5 |
| 20260509214303 | 85 | 359 | 6.0 | 18.0 | 0.00 | 0.19 | 0.00 | 29 | 1008.5 |
| 20260509213303 | 86 | 307 | 3.0 | 9.0 | 0.00 | 0.19 | 0.00 | 29 | 1007.3 |
| 20260509212802 | 86 | 213 | 5.0 | 5.0 | 0.00 | 0.19 | 0.00 | 30 | 1007.7 |
| 20260509212305 | 87 | 311 | 4.0 | 13.0 | 0.00 | 0.19 | 0.00 | 32 | 1007.7 |
| 20260509211303 | 85 | 80 | 4.0 | 14.0 | 0.00 | 0.19 | 0.00 | 31 | 1007.7 |
| 20260509210304 | 85 | 325 | 6.0 | 14.0 | 0.00 | 0.19 | 0.00 | 31 | 1007.7 |
| 20260509205803 | 85 | 145 | 5.0 | 18.0 | 0.00 | 0.19 | 0.00 | 31 | 1007.7 |
| 20260509205306 | 85 | 163 | 5.0 | 18.0 | 0.00 | 0.19 | 0.00 | 32 | 1007.7 |
| 20260509204803 | 84 | 10 | 5.0 | 9.0 | 0.00 | 0.19 | 0.00 | 32 | 1008.1 |
| 20260509204303 | 84 | 331 | 5.0 | 10.0 | 0.00 | 0.19 | 0.00 | 32 | 1008.1 |
| 20260509203803 | 83 | 145 | 6.0 | 10.0 | 0.00 | 0.19 | 0.00 | 32 | 1008.1 |
| 20260509202803 | 83 | 325 | 6.0 | 12.0 | 0.00 | 0.19 | 0.00 | 32 | 1007.9 |
| 20260509201303 | 84 | 2 | 6.0 | 10.0 | 0.00 | 0.19 | 0.00 | 33 | 1007.9 |
| 20260509200303 | 84 | 42 | 6.0 | 13.0 | 0.00 | 0.19 | 0.00 | 35 | 1007.9 |
| 20260509195803 | 84 | 167 | 7.0 | 13.0 | 0.00 | 0.19 | 0.00 | 36 | 1007.9 |
| 20260509195306 | 83 | 163 | 8.0 | 15.0 | 0.00 | 0.19 | 0.00 | 37 | 1007.9 |
| 20260509194803 | 83 | 145 | 7.0 | 15.0 | 0.00 | 0.19 | 0.00 | 36 | 1008.3 |
| 20260509194303 | 83 | 159 | 6.0 | 9.0 | 0.00 | 0.19 | 0.00 | 36 | 1008.3 |
| 20260509193803 | 83 | 280 | 7.0 | 16.0 | 0.00 | 0.19 | 0.00 | 36 | 1008.3 |
| 20260509192803 | 82 | 347 | 5.0 | 12.0 | 0.00 | 0.19 | 0.00 | 37 | 1008.4 |
| 20260509191803 | 83 | 100 | 6.0 | 14.0 | 0.00 | 0.19 | 0.00 | 37 | 1008.4 |
| 20260509191303 | 82 | 338 | 6.0 | 17.0 | 0.00 | 0.19 | 0.00 | 40 | 1008.4 |
| 20260509190803 | 82 | 145 | 5.0 | 14.0 | 0.00 | 0.19 | 0.00 | 40 | 1008.5 |
| 20260509190304 | 81 | 292 | 5.0 | 8.0 | 0.00 | 0.19 | 0.00 | 40 | 1008.5 |
| 20260509185804 | 81 | 303 | 5.0 | 8.0 | 0.00 | 0.19 | 0.00 | 40 | 1008.5 |
| 20260509185306 | 81 | 115 | 6.0 | 8.0 | 0.00 | 0.19 | 0.00 | 41 | 1008.5 |
| 20260509183803 | 80 | 145 | 7.0 | 16.0 | 0.00 | 0.19 | 0.00 | 42 | 1008.6 |
| 20260509183303 | 80 | 325 | 9.0 | 9.0 | 0.00 | 0.19 | 0.00 | 43 | 1008.6 |
| 20260509182803 | 80 | 280 | 8.0 | 18.0 | 0.00 | 0.19 | 0.00 | 43 | 1008.6 |
| 20260509182306 | 80 | 145 | 6.0 | 22.0 | 0.00 | 0.19 | 0.00 | 42 | 1008.6 |
| 20260509181303 | 79 | 138 | 8.0 | 21.0 | 0.00 | 0.19 | 0.00 | 45 | 1008.6 |
| 20260509180303 | 77 | 325 | 7.0 | 17.0 | 0.00 | 0.19 | 0.00 | 48 | 1008.7 |
| 20260509175803 | 77 | 100 | 8.0 | 17.0 | 0.00 | 0.19 | 0.00 | 48 | 1008.7 |
| 20260509175306 | 76 | 139 | 7.0 | 14.0 | 0.00 | 0.19 | 0.00 | 52 | 1008.7 |
| 20260509174304 | 75 | 335 | 7.0 | 18.0 | 0.00 | 0.19 | 0.00 | 52 | 1008.9 |
| 20260509173804 | 74 | 347 | 7.0 | 18.0 | 0.00 | 0.19 | 0.00 | 52 | 1008.9 |
| 20260509172803 | 74 | 167 | 6.0 | 13.0 | 0.00 | 0.19 | 0.00 | 55 | 1009.0 |
| 20260509172306 | 73 | 140 | 6.0 | 17.0 | 0.00 | 0.19 | 0.00 | 55 | 1009.0 |
| 20260509171803 | 73 | 303 | 8.0 | 17.0 | 0.00 | 0.19 | 0.00 | 55 | 1009.0 |
| 20260509171304 | 72 | 145 | 8.0 | 20.0 | 0.00 | 0.19 | 0.00 | 58 | 1009.0 |
| 20260509170804 | 72 | 145 | 7.0 | 20.0 | 0.00 | 0.19 | 0.00 | 58 | 1009.5 |
| 20260509165803 | 72 | 167 | 7.0 | 12.0 | 0.00 | 0.19 | 0.00 | 60 | 1009.5 |
| 20260509165306 | 71 | 127 | 6.0 | 15.0 | 0.00 | 0.19 | 0.00 | 59 | 1009.5 |
| 20260509164304 | 70 | 149 | 5.0 | 12.0 | 0.00 | 0.19 | 0.00 | 63 | 1009.4 |